This is the latest recevied weather packets stored in our database for station/object KC9GSD. If no packets are shown the sender has not sent any weather packets the latest 10 day(s).
| Time | Temp. | Humidity | Pressure | Rain* | Wind** | Luminosity | Snow |
|---|---|---|---|---|---|---|---|
| 1777073552 | 22.22° C | 69% | 1010.5 hPa | 0 mm | - | 29 W/m² | - |
| 1777073248 | 22.22° C | 65% | 1010.6 hPa | 0 mm | - | 34 W/m² | - |
| 1777072944 | 22.78° C | 64% | 1010.5 hPa | 0 mm | - | 40 W/m² | - |
| 1777072641 | 22.78° C | 64% | 1010.6 hPa | 0 mm | - | 46 W/m² | - |
| 1777072340 | 22.78° C | 60% | 1010.1 hPa | 0 mm | - | 51 W/m² | - |
| 1777072039 | 23.33° C | 63% | 1010.4 hPa | 0 mm | - | 58 W/m² | - |
| 1777071735 | 23.33° C | 60% | 1010.4 hPa | 0 mm | - | 61 W/m² | - |
| 1777071432 | 23.89° C | 57% | 1010.5 hPa | 0 mm | - | 70 W/m² | - |
| 1777071131 | 23.89° C | 59% | 1010.2 hPa | 0 mm | - | 78 W/m² | - |
| 1777070828 | 23.89° C | 57% | 1010.2 hPa | 0 mm | - | 84 W/m² | - |
| 1777070526 | 24.44° C | 57% | 1010.2 hPa | 0 mm | - | 87 W/m² | - |
| 1777070224 | 24.44° C | 55% | 1010.2 hPa | 0 mm | - | 97 W/m² | - |
| 1777069919 | 24.44° C | 59% | 1010.2 hPa | 0 mm | - | 104 W/m² | - |
| 1777069619 | 24.44° C | 56% | 1010 hPa | 0 mm | - | 105 W/m² | - |
| 1777069315 | 25° C | 54% | 1010.1 hPa | 0 mm | - | 101 W/m² | - |
| 1777069011 | 25° C | 52% | 1010 hPa | 0 mm | - | 116 W/m² | - |
| 1777068708 | 25° C | 58% | 1010.2 hPa | 0 mm | - | 143 W/m² | - |
| 1777068408 | 25.56° C | 56% | 1010.1 hPa | 0 mm | - | 130 W/m² | - |
| 1777068107 | 25.56° C | 52% | 1010.2 hPa | 0 mm | - | 149 W/m² | - |
| 1777067802 | 26.11° C | 52% | 1010 hPa | 0 mm | - | 179 W/m² | - |
| 1777067501 | 25.56° C | 51% | 1010.1 hPa | 0 mm | - | 297 W/m² | - |
| 1777067200 | 25.56° C | 52% | 1010 hPa | 0 mm | - | 316 W/m² | - |
| 1777066896 | 26.11° C | 51% | 1010 hPa | 0 mm | - | 146 W/m² | - |
| 1777066591 | 26.11° C | 50% | 1010 hPa | 0 mm | - | 333 W/m² | - |
| 1777066287 | 25.56° C | 58% | 1010 hPa | 0 mm | - | 246 W/m² | - |
* Rain latest hour (hover to see other rain measurements)
** Current wind speed in m/s (hover to see current wind gust speed)